Weather History for Lancaster, SC

Change the Weather History Date:

Sunday, February 10, 2013

  Actual Average (KUZA) Record (KUZA)
Temperature  
Mean Temperature 45 °F -  
Max Temperature 60 °F 52 °F 75 °F (1954)
Min Temperature 30 °F 30 °F 12 °F (1979)
Degree Days  
Heating Degree Days 20    
Moisture  
Dew Point 34 °F    
Average Humidity 69    
Maximum Humidity 100    
Minimum Humidity 23    
Precipitation  
Precipitation 0.16 in - - ()
Sea Level Pressure  
Sea Level Pressure 30.33 in    
Wind  
Wind Speed 1 mph (SE)    
Max Wind Speed 7 mph    
Max Gust Speed -    
Visibility 9 miles    
Events Rain    
Averages and records for this station are not official NWS values.
T = Trace of Precipitation, MM = Missing Value Source: NWS Daily Summary

Daily Weather History Graph

Daily Weather History Graph

Search for Another Location

Airport:

Trip Planner

Search our weather history database for the weather conditions in past years. The results will help you decide how hot, cold, wet, or windy it might be!

Date:

Astronomy

Feb. 10, 2013 Rise Set
Actual Time 7:13 AM EST 6:01 PM EST
Civil Twilight 6:47 AM EST 6:27 PM EST
Nautical Twilight 6:18 AM EST 6:57 PM EST
Astronomical Twilight 5:48 AM EST 7:27 PM EST
Moon 7:05 AM EST (2/10) 6:46 PM EST (2/10)
Length of Visible Light 11h 40m
Length of Day
10h 48m
New Moon, 0% of the Moon is Illuminated
Feb 10
New Moon
Feb 17
First Quarter
Feb 25
Full
Mar 4
Last Quarter
Mar 11
New

Hourly Weather History & Observations

Time (EST) Temp. Windchill Dew Point Humidity Pressure Visibility Wind Dir Wind Speed Gust Speed Precip Events Conditions
12:35 AM 30.2 °F - 28.4 °F 93% 30.35 in 10.0 mi Calm Calm - N/A   Clear
12:55 AM 30.2 °F - 28.4 °F 93% 30.35 in 10.0 mi Calm Calm - N/A   Clear
1:15 AM 32.0 °F - 28.4 °F 87% 30.35 in 10.0 mi Calm Calm - N/A   Clear
1:35 AM 32.0 °F - 28.4 °F 87% 30.35 in 10.0 mi Calm Calm - N/A   Clear
2:15 AM 32.0 °F - 28.4 °F 87% 30.35 in 10.0 mi Calm Calm - N/A   Clear
2:35 AM 32.0 °F - 30.2 °F 93% 30.36 in 10.0 mi Calm Calm - N/A   Clear
3:15 AM 32.0 °F - 30.2 °F 93% 30.36 in 10.0 mi Calm Calm - N/A   Clear
3:35 AM 32.0 °F 28.7 °F 28.4 °F 87% 30.36 in 10.0 mi NE 3.5 mph - N/A   Clear
3:55 AM 32.0 °F - 28.4 °F 87% 30.36 in 10.0 mi Calm Calm - N/A   Clear
4:15 AM 32.0 °F - 30.2 °F 93% 30.36 in 10.0 mi Calm Calm - N/A   Clear
4:35 AM 32.0 °F - 32.0 °F 100% 30.36 in 10.0 mi Calm Calm - N/A   Clear
4:55 AM 32.0 °F - 30.2 °F 93% 30.36 in 10.0 mi Calm Calm - N/A   Clear
5:15 AM 32.0 °F - 30.2 °F 93% 30.37 in 10.0 mi Calm Calm - N/A   Clear
5:35 AM 32.0 °F - 28.4 °F 87% 30.37 in 10.0 mi Calm Calm - N/A   Clear
5:55 AM 32.0 °F - 28.4 °F 87% 30.37 in 10.0 mi Calm Calm - N/A   Clear
6:15 AM 32.0 °F - 30.2 °F 93% 30.38 in 10.0 mi Calm Calm - N/A   Clear
6:35 AM 32.0 °F - 28.4 °F 87% 30.39 in 10.0 mi Calm Calm - N/A   Clear
6:55 AM 32.0 °F - 28.4 °F 87% 30.40 in 10.0 mi Calm Calm - N/A   Clear
7:15 AM 33.8 °F - 32.0 °F 93% 30.41 in 10.0 mi Calm Calm - N/A   Clear
7:35 AM 32.0 °F - 32.0 °F 100% 30.44 in 10.0 mi Calm Calm - N/A   Clear
8:15 AM 33.8 °F - 32.0 °F 93% 30.42 in 10.0 mi Calm Calm - N/A   Clear
8:35 AM 35.6 °F - 30.2 °F 81% 30.43 in 10.0 mi Calm Calm - N/A   Clear
8:55 AM 37.4 °F - 28.4 °F 70% 30.44 in 10.0 mi Calm Calm - N/A   Clear
9:15 AM 39.2 °F - 26.6 °F 61% 30.43 in 10.0 mi Calm Calm - N/A   Clear
9:35 AM 44.6 °F - 24.8 °F 46% 30.43 in 10.0 mi Calm Calm - N/A   Clear
9:55 AM 46.4 °F 44.3 °F 24.8 °F 43% 30.43 in 10.0 mi ESE 4.6 mph - N/A   Clear
10:15 AM 48.2 °F - 23.0 °F 37% 30.42 in 10.0 mi Calm Calm - N/A   Clear
10:35 AM 50.0 °F - 19.4 °F 30% 30.44 in 10.0 mi East 3.5 mph - N/A   Clear
11:15 AM 53.6 °F - 17.6 °F 24% 30.44 in 10.0 mi Calm Calm - N/A   Clear
11:55 AM 53.6 °F - 17.6 °F 24% 30.42 in 10.0 mi ESE 4.6 mph - N/A   Clear
12:15 PM 55.4 °F - 17.6 °F 23% 30.41 in 10.0 mi SE 3.5 mph - N/A   Clear
12:35 PM 55.4 °F - 19.4 °F 25% 30.38 in 10.0 mi SSE 6.9 mph - N/A Rain Light Rain
1:15 PM 57.2 °F - 19.4 °F 23% 30.37 in 10.0 mi SSE 3.5 mph - N/A   Clear
1:35 PM 59.0 °F - 23.0 °F 25% 30.35 in 10.0 mi ESE 4.6 mph - N/A   Clear
1:55 PM 59.0 °F - 24.8 °F 27% 30.33 in 10.0 mi ESE 6.9 mph - N/A   Clear
2:15 PM 59.0 °F - 28.4 °F 31% 30.31 in 10.0 mi ESE 3.5 mph - N/A   Clear
2:35 PM 59.0 °F - 30.2 °F 34% 30.29 in 10.0 mi South 3.5 mph - N/A   Clear
2:55 PM 60.8 °F - 32.0 °F 34% 30.28 in 10.0 mi ESE 4.6 mph - N/A   Clear
3:15 PM 59.0 °F - 33.8 °F 39% 30.29 in 10.0 mi SSE 6.9 mph - N/A   Clear
3:35 PM 59.0 °F - 35.6 °F 42% 30.28 in 10.0 mi SSE 3.5 mph - N/A   Clear
3:55 PM 59.0 °F - 35.6 °F 42% 30.28 in 10.0 mi Calm Calm - N/A   Clear
4:15 PM 59.0 °F - 37.4 °F 45% 30.28 in 10.0 mi SSE 5.8 mph - N/A   Clear
4:35 PM 59.0 °F - 37.4 °F 45% 30.25 in 10.0 mi ESE 4.6 mph - N/A   Scattered Clouds
4:55 PM 59.0 °F - 39.2 °F 48% 30.26 in 10.0 mi SE 3.5 mph - N/A   Scattered Clouds
5:15 PM 57.2 °F - 39.2 °F 51% 30.25 in 10.0 mi Calm Calm - N/A   Mostly Cloudy
5:35 PM 57.2 °F - 41.0 °F 55% 30.24 in 10.0 mi Calm Calm - N/A   Partly Cloudy
5:55 PM 57.2 °F - 41.0 °F 55% 30.25 in 10.0 mi Calm Calm - N/A   Scattered Clouds
6:15 PM 57.2 °F - 41.0 °F 55% 30.25 in 10.0 mi SE 3.5 mph - N/A   Mostly Cloudy
6:35 PM 55.4 °F - 42.8 °F 63% 30.24 in 10.0 mi Calm Calm - N/A   Scattered Clouds
6:55 PM 55.4 °F - 42.8 °F 63% 30.24 in 10.0 mi Calm Calm - N/A   Partly Cloudy
7:15 PM 55.4 °F - 42.8 °F 63% 30.22 in 10.0 mi East 4.6 mph - N/A   Partly Cloudy
7:35 PM 55.4 °F - 42.8 °F 63% 30.22 in 10.0 mi East 4.6 mph - N/A   Mostly Cloudy
7:55 PM 55.4 °F - 42.8 °F 63% 30.22 in 10.0 mi Calm Calm - N/A   Scattered Clouds
8:15 PM 55.4 °F - 44.6 °F 67% 30.23 in 10.0 mi Calm Calm - N/A Rain Light Rain
8:35 PM 53.6 °F - 46.4 °F 77% 30.25 in 10.0 mi Calm Calm - N/A   Scattered Clouds
8:55 PM 55.4 °F - 46.4 °F 72% 30.27 in 10.0 mi Calm Calm - N/A Rain Light Rain
9:15 PM 50.0 °F - 50.0 °F 100% 30.28 in 7.0 mi Calm Calm - N/A Rain Light Rain
9:35 PM 50.0 °F - 50.0 °F 100% 30.29 in 5.0 mi Calm Calm - 0.02 in Rain Light Rain
9:55 PM 50.0 °F - 50.0 °F 100% 30.28 in 3.0 mi Calm Calm - 0.04 in Rain Light Rain
10:15 PM 50.0 °F - 50.0 °F 100% 30.27 in 4.0 mi Calm Calm - 0.02 in Rain Light Rain
10:35 PM 50.0 °F - 50.0 °F 100% 30.26 in 3.0 mi Calm Calm - 0.05 in Rain Light Rain
10:55 PM 50.0 °F - 50.0 °F 100% 30.24 in 3.0 mi ESE 4.6 mph - 0.08 in Rain Light Rain
11:15 PM 50.0 °F - 50.0 °F 100% 30.22 in 4.0 mi ESE 3.5 mph - 0.02 in Rain Light Rain
11:35 PM 50.0 °F - 50.0 °F 100% 30.22 in 5.0 mi SE 4.6 mph - 0.03 in Rain Light Rain
11:55 PM 50.0 °F - 50.0 °F 100% 30.21 in 5.0 mi SE 3.5 mph - 0.04 in Rain Light Rain